STARLINK-1795, 46696

Orbit data source: Space-Track

STARLINK-1795, 46696 is a payload satellite owned by SpaceX/Seattle (US) in LEO that was launched on Sun, 18 Oct 2020 UTC via an FALCON 9 launch vehicle from the Air Force Eastern Test Range (AFETR). Payload-class satellites include a variety of spacecraft equipped with specific instruments for various scientific and technological missions. These include communications satellites like Starlink; space stations such as the ISS; scientific satellites like the Hubble; Earth observation satellites from companies like Planet Labs, Umbra, and HawkEye 360; GPS; miniature CubeSats for education and research; and military/defense satellites.

Loading next visibility...
Identifier
46696, 2020-073AC
Orbit
LEO
Country
Flag of USUS
Related business
Manufacturer
SpaceX/Seattle
Mission
Partially operational Commercial Communications
Bus & Motor
STARLINK, Unknown motor
Mass
260 kg wet, ~248 kg dry
Launch date (UTC)
2020-10-18 (6 years ago)
Launch vehicle
FALCON 9
Launch site
Air Force Eastern Test Range (AFETR)
Object type
Payload
Rocket body
Debris
Shape & HBR
Box + 1 Pan, 10.1 m
Radar Cross Section
13.562 m², Large (>1 m²)

Expand to show TLE details & history
Last TLE update: 4 hours ago

TLE from 4 hours ago
0 STARLINK-1795
1 46696U 20073AC  26124.50002315  .00141558  00000-0  63995-3 0  9993
2 46696  53.0360 263.1118 0008075 300.0158  61.7027 15.83032826  6039
Epoch: 2026-05-04T12:00Z
TLE epoch observation values (Epoch: 2026-05-04T12:00:02.000Z)
Latitude
1.36508°
Longitude
-138.2631°
Altitude
320.048 km
Speed
7.719 km/s
True Right ascension
17h 36m 32s
True Declination
1° 21' 23"
Sunlit
Object was in full shadow at epoch
Visualization orbit readout
Latitude
Unknown
Longitude
Unknown
Altitude
Unknown
Speed
Unknown
Apparent Right ascension
Unknown
Apparent Declination
Unknown
Sunlit
N/A
Visualization observer readout
Local Sidereal Time
00:05:30
Azimuth
Unknown
Elevation
Unknown
Doppler factor
Unknown
Orbital elements
Apogee altitude
327.563 km
Perigee altitude
316.742 km
Semi-major axis
6,700.289 km
Eccentricity
0.00081
Inclination
53.036°
RAAN
263.1118°
Arg. of periapsis
300.0158°
True anomaly
61.78421°
Mean anomaly
61.7027°
Eccentric anomaly
61.74345°
Mean motion
3.95734 °/min
Orbital period
90.97 mins
BSTAR
0.00063995
Loading maneuver chart data...
Computing Atmospheric mass density...
Loading historical data...
Loading historical data...
Loading historical data...
Loading historical data...
Loading historical data...
Loading historical data...
Loading historical data...

Documentation

Showing up to 5 results
|